Location: Hobi?a Gr?di?te
(45.4833°N, 22.7833°E)
Time: 10:56:50
(UTC+00:00)

Cosmos 2266 Rocket - Pass Details

Date: 28 January 2023
Orbit: 933 x 1008 km, 82.9° (Epoch: 20 March)

Event Time Altitude Azimuth Distance (km) Brightness Sun altitude
Rises 16:58:35 0° 349° (N) 3,729 7.1 -15.7°
Reaches altitude 10° 17:01:08 10° 348° (NNW) 2,767 6.4 -16.1°
Maximum altitude 17:07:27 73° 266° (W) 1,025 4.2 -17.2°
Drops below altitude 10° 17:13:37 10° 182° (S) 2,698 6.4 -18.3°
Sets 17:16:05 0° 181° (S) 3,629 7.1 -18.7°
